Weather History for PAOM - September, 2012

Change the Weather History Date:

Thursday, September 20, 2012

  Actual Average Record
Temperature  
Mean Temperature 43 °F 41 °F  
Max Temperature 46 °F 47 °F 64 °F (1995)
Min Temperature 39 °F 35 °F 17 °F (1975)
Degree Days  
Heating Degree Days 22 24  
Month to date heating degree days 462 401  
Since 1 July heating degree days 1367 1265  
Cooling Degree Days 0    
Month to date cooling degree days 0  
Year to date cooling degree days 0  
Moisture  
Dew Point 39 °F    
Average Humidity 0    
Maximum Humidity 0    
Minimum Humidity 0    
Precipitation  
Precipitation 0.00 in 0.07 in 1.18 in (1955)
Month to date precipitation 1.97 1.73  
Year to date precipitation 16.65 12.18  
Snow  
Snow 0.00 in 0.00 in 3.00 in (1919)
Month to date snowfall T 0.2  
Since 1 July snowfall T 0.2  
Since 1 September snowfall 0.0 0.2  
Snow Depth 0.00 in    
Sea Level Pressure  
Sea Level Pressure 29.61 in    
Wind  
Wind Speed 3 mph (East)    
Max Wind Speed 9 mph    
Max Gust Speed 10 mph    
Visibility 10 miles    
Events      
T = Trace of Precipitation, MM = Missing Value Source: NWS Daily Summary

Daily Weather History Graph

Daily Weather History Graph

Search for Another Location

Airport or City:

Trip Planner

Search our weather history database for the weather conditions in past years. The results will help you decide how hot, cold, wet, or windy it might be!

Date:

Astronomy

Sep. 20, 2012 Rise Set
Actual Time 8:40 AM AKDT 9:07 PM AKDT
Civil Twilight 7:52 AM AKDT 9:55 PM AKDT
Nautical Twilight 6:51 AM AKDT 10:55 PM AKDT
Astronomical Twilight 5:41 AM AKDT 12:04 AM AKDT
Moon 4:40 PM AKDT (9/20) 9:52 PM AKDT (9/20)
Length of Visible Light 14h 03m
Length of Day
12h 26m
Waxing Crescent, 28% of the Moon is Illuminated
Sep 20
Waxing Crescent
Sep 22
First Quarter
Sep 29
Full
Oct 7
Last Quarter
Oct 15
New

Hourly Weather History & Observations

Time (AKDT) Temp. Windchill Dew Point Humidity Pressure Visibility Wind Dir Wind Speed Gust Speed Precip Events Conditions
12:53 AM 42.1 °F 39.2 °F 41.0 °F 96% 29.49 in 10.0 mi West 4.6 mph - N/A   Overcast
1:53 AM 41.0 °F 38.0 °F 39.9 °F 96% 29.51 in 10.0 mi WNW 4.6 mph - N/A   Overcast
2:53 AM 41.0 °F - 39.9 °F 96% 29.52 in 10.0 mi Calm Calm - N/A   Overcast
3:23 AM 41.0 °F - 39.2 °F 93% 29.53 in 10.0 mi Calm Calm - N/A   Overcast
3:31 AM 42.8 °F - 39.2 °F 87% 29.52 in 10.0 mi Calm Calm - N/A   Overcast
3:53 AM 41.0 °F - 39.9 °F 96% 29.53 in 10.0 mi Calm Calm - N/A   Overcast
4:53 AM 41.0 °F - 39.9 °F 96% 29.55 in 10.0 mi Calm Calm - N/A   Overcast
5:53 AM 41.0 °F - 39.9 °F 96% 29.56 in 10.0 mi Calm Calm - N/A   Overcast
6:15 AM 41.0 °F - 39.2 °F 93% 29.56 in 10.0 mi Calm Calm - N/A   Overcast
6:53 AM 39.9 °F - 39.9 °F 100% 29.57 in 10.0 mi Calm Calm - N/A   Overcast
7:17 AM 39.2 °F - 39.2 °F 100% 29.57 in 10.0 mi Calm Calm - N/A   Overcast
7:53 AM 39.9 °F - 39.0 °F 97% 29.58 in 10.0 mi Calm Calm - N/A   Overcast
8:23 AM 39.2 °F - 39.2 °F 100% 29.59 in 10.0 mi Calm Calm - N/A   Overcast
8:53 AM 39.9 °F - 39.0 °F 97% 29.60 in 10.0 mi Calm Calm - N/A   Overcast
9:53 AM 39.9 °F - 39.9 °F 100% 29.61 in 10.0 mi Calm Calm - N/A   Mostly Cloudy
10:53 AM 41.0 °F 39.0 °F 39.9 °F 96% 29.62 in 10.0 mi ENE 3.5 mph - N/A   Overcast
11:41 AM 42.8 °F - 41.0 °F 93% 29.64 in 10.0 mi Calm Calm - N/A   Mostly Cloudy
11:53 AM 43.0 °F - 41.0 °F 93% 29.64 in 10.0 mi Calm Calm - N/A   Mostly Cloudy
12:53 PM 43.0 °F 41.3 °F 39.9 °F 89% 29.65 in 10.0 mi East 3.5 mph - N/A   Overcast
1:25 PM 44.6 °F - 39.2 °F 81% 29.65 in 10.0 mi Calm Calm - N/A   Overcast
1:53 PM 44.1 °F - 39.9 °F 85% 29.65 in 10.0 mi Calm Calm - N/A   Mostly Cloudy
2:53 PM 44.1 °F 42.5 °F 39.9 °F 85% 29.65 in 10.0 mi SSE 3.5 mph - N/A   Overcast
3:53 PM 44.1 °F 41.5 °F 39.9 °F 85% 29.66 in 10.0 mi SSE 4.6 mph - N/A   Overcast
4:00 PM 44.6 °F 42.2 °F 39.2 °F 81% 29.66 in 10.0 mi South 4.6 mph - N/A   Overcast
4:53 PM 45.0 °F 43.5 °F 39.0 °F 80% 29.66 in 10.0 mi WSW 3.5 mph - N/A   Overcast
5:11 PM 44.6 °F 41.4 °F 39.2 °F 81% 29.65 in 10.0 mi NNE 5.8 mph - N/A   Overcast
5:53 PM 43.0 °F 40.3 °F 39.0 °F 86% 29.66 in 10.0 mi ENE 4.6 mph - 0.00 in   Mostly Cloudy
6:53 PM 44.1 °F 42.5 °F 39.9 °F 85% 29.67 in 10.0 mi SE 3.5 mph - N/A   Mostly Cloudy
7:53 PM 44.1 °F 40.8 °F 37.9 °F 79% 29.67 in 10.0 mi ESE 5.8 mph - N/A   Overcast
8:53 PM 42.1 °F 37.7 °F 37.9 °F 85% 29.68 in 10.0 mi NNE 6.9 mph - N/A   Overcast
9:53 PM 41.0 °F 37.1 °F 39.0 °F 93% 29.68 in 10.0 mi North 5.8 mph - N/A   Mostly Cloudy
10:53 PM 41.0 °F - 37.0 °F 86% 29.68 in 10.0 mi Calm Calm - N/A   Mostly Cloudy
11:00 PM 41.0 °F - 37.4 °F 87% 29.68 in 10.0 mi Calm Calm - N/A   Overcast
11:53 PM 39.9 °F 35.8 °F 36.0 °F 86% 29.69 in 10.0 mi North 5.8 mph - N/A   Overcast